Tracking 34142 objects as of 17-May-2026
HD Live streaming from Space Station
objects crossing your sky now

STARLINK-32801

Track STARLINK-32801 now!
10-day predictions
STARLINK-32801 is classified as:


NORAD ID: 63035
Int'l Code: 2025-034G
Perigee: 471.6 km
Apogee: 473.0 km
Inclination: 53.2 °
Period: 93.9 minutes
Semi major axis: 6843 km
RCS: Unknown
Launch date: February 18, 2025
Source: United States (US)
Launch site: AIR FORCE EASTERN TEST RANGE (AFETR)
Your satellite tracking list
Your tracking list is empty




NASA's NSSDC Master Catalog

Two Line Element Set (TLE):
1 63035U 25034G   26137.18540081  .00014427  00000-0  44893-3 0  9996
2 63035  53.1596 299.9824 0001014  89.4837 270.6281 15.33564200 69567
Source of the keplerian elements: AFSPC